RH
4 4 5 5 5 4 4 4 4 4 6 8 9 11 11 9 8 7 6 6 6 7 7 3 2 4 14 20 20 8 3 2 2 2 1 1 10 30 47 47 59 52 34 26 16 22 27
3 4 4 4 4 5 5 5 5 5 6 7 9 11 10 8 8 8 7 6 5 6 6 8 4 2 8 15 17 18 13 3 2 2 2 1 2 16 43 54 62 58 46 32 19 18 25
4 5 5 6 6 6 6 6 6 6 7 8 7 9 10 8 11 9 7 7 6 5 5 6 9 3 3 9 12 13 15 12 3 2 2 1 1 9 23 66 59 63 64 48 31 17 20
10 10 11 11 11 9 7 7 6 6 7 7 6 9 12 10 14 11 8 8 7 8 6 5 7 10 4 3 6 11 7 14 9 3 2 2 2 2 19 31 72 76 68 65 50 16 16
18 18 18 15 13 13 12 11 10 10 10 10 13 18 16 13 14 12 10 8 8 8 7 6 5 9 10 6 4 8 8 5 10 7 2 2 2 2 6 22 60 68 62 72 59 21 17
19 19 20 22 24 22 21 20 21 22 22 22 22 21 20 18 16 11 10 9 9 9 10 8 7 8 9 7 5 4 8 5 4 5 5 2 2 2 2 11 11 61 71 70 68 52 36
22 24 25 24 24 25 25 24 23 21 23 25 27 25 22 17 13 11 10 10 9 9 11 13 11 8 9 9 7 5 6 8 4 3 4 4 2 2 2 2 24 48 82 72 78 63 63
25 26 26 26 27 27 25 25 22 21 23 26 29 23 18 16 13 13 13 12 11 11 11 12 13 12 10 9 8 6 6 8 7 4 4 4 3 2 2 2 8 27 46 85 76 67 95
31 30 30 31 30 26 24 24 22 22 24 25 28 25 21 16 14 15 18 17 15 13 12 14 13 14 13 10 10 7 7 7 8 7 4 4 4 3 2 2 3 14 30 88 87 100 100
40 38 37 35 32 28 30 27 28 28 26 28 28 26 23 19 19 20 21 20 18 16 14 13 13 14 13 12 10 9 8 8 8 8 8 4 4 4 3 2 2 6 22 68 98 81 100
43 44 43 38 35 36 36 37 35 35 30 28 29 29 25 23 24 25 25 25 23 20 17 16 14 14 14 14 12 11 10 9 9 9 9 8 7 5 5 3 7 3 39 52 98 82 100
44 42 38 39 42 42 42 41 40 39 36 31 30 30 30 30 28 29 29 29 27 24 22 19 18 17 17 16 16 14 12 11 10 10 9 9 9 7 5 6 5 12 38 50 69 90 98
43 42 39 37 38 40 41 40 38 36 33 30 29 28 28 28 28 29 30 31 29 28 25 23 21 20 19 19 18 18 15 13 12 12 11 11 11 13 10 8 7 10 44 57 63 99 26
49 47 44 41 41 42 42 40 37 36 33 31 31 32 32 29 29 32 35 35 33 30 29 26 24 22 20 19 18 19 20 16 14 12 13 12 11 13 12 10 10 10 37 62 75 79 13
52 49 48 46 45 44 41 39 39 38 37 36 33 32 34 35 36 40 40 38 35 31 29 27 25 23 20 19 18 21 21 20 17 17 16 15 13 12 14 14 18 12 72 28 45 65 93
54 53 57 55 49 45 44 46 44 40 36 34 32 34 40 43 45 43 40 37 35 33 31 29 27 25 22 21 22 24 26 23 21 20 22 19 15 13 15 15 16 20 14 75 94 97 88
63 61 58 56 53 50 46 43 37 34 32 32 35 41 45 49 48 46 44 42 40 37 33 29 26 25 23 20 21 25 32 28 26 25 24 26 21 19 16 14 15 20 22 54 70 68 66
64 62 62 61 55 48 39 34 33 28 27 24 23 33 39 44 50 50 48 46 42 38 32 30 30 28 24 18 17 25 36 34 29 25 27 29 30 22 15 22 16 17 23 34 59 52 62
64 64 63 58 51 42 37 33 27 21 10 5 4 6 20 36 54 56 53 50 47 43 40 39 37 33 29 23 13 20 31 40 38 27 30 32 32 31 24 20 18 16 17 26 38 54 66
73 69 64 56 46 40 35 24 14 4 2 3 4 5 9 25 43 59 69 68 67 62 55 49 46 37 22 14 11 11 23 41 44 33 26 35 39 39 33 25 46 29 18 20 27 39 39
82 75 64 56 46 38 28 6 3 3 4 4 5 7 10 14 31 46 51 59 64 65 61 56 43 31 32 25 12 12 14 36 46 43 32 38 34 63 45 36 35 35 33 31 29 28 33
88 77 73 69 51 30 10 6 5 4 5 7 8 10 18 30 42 43 47 56 58 53 44 44 44 44 36 23 19 13 13 28 44 48 41 40 48 54 47 49 44 53 35 37 28 28 27
98 94 87 75 28 9 8 8 8 8 10 12 15 11 12 19 28 31 36 35 34 36 46 45 39 37 35 31 24 17 19 31 33 41 86 94 37 48 28 57 64 65 18 28 30 33 37
100 96 54 15 10 11 10 15 23 27 22 17 13 11 10 15 19 27 36 45 44 57 55 47 46 40 43 43 44 43 28 28 39 44 42 48 100 87 33 52 65 23 41 27 35 36 42
59 20 12 12 13 14 30 41 42 37 22 20 18 22 23 27 38 47 50 50 53 68 65 54 58 54 51 47 39 52 53 39 37 42 43 42 52 100 97 65 38 57 32 27 27 25 40
15 14 14 15 25 47 60 62 40 27 25 27 32 40 43 40 42 45 44 51 56 59 61 67 67 56 50 48 47 46 53 55 47 38 40 38 37 45 92 100 56 18 43 39 36 25 35
17 17 21 36 61 77 78 57 40 48 58 59 57 56 50 46 45 44 42 42 46 50 55 61 63 60 55 47 43 40 39 48 51 50 38 66 34 37 33 56 30 26 32 56 60 25 48
20 24 40 73 90 88 65 49 53 64 70 70 66 63 53 43 35 30 27 25 24 26 29 35 41 42 43 44 43 43 40 44 41 47 42 26 74 40 46 31 34 38 66 83 53 57 51
29 52 89 97 91 68 61 72 75 74 71 64 51 40 30 22 17 14 12 10 8 9 10 12 15 20 27 30 28 29 35 35 40 41 40 29 50 98 70 50 51 45 81 100 52 66 78
Wind_Speed
28 29 29 29 28 27 27 29 29 29 25 24 27 29 30 24 21 21 19 19 17 16 17 19 20 25 29 31 35 36 37 37 37 35 37 41 46 45 41 42 39 40 40 38 40 38 39
32 33 34 34 34 33 30 29 28 27 25 27 28 30 28 22 22 22 21 19 18 18 17 18 20 21 24 28 31 33 35 38 38 37 37 40 45 48 45 42 40 44 40 40 41 41 39
35 34 36 36 36 35 33 33 30 29 29 29 31 31 27 23 22 24 24 22 18 18 17 17 19 19 20 23 26 30 32 35 38 38 38 39 43 48 49 45 44 41 44 44 42 44 42
34 34 35 35 35 34 33 32 32 33 34 34 33 31 26 23 23 23 25 25 23 19 19 17 18 20 20 21 22 26 28 32 34 38 40 40 42 48 50 50 46 44 44 44 50 46 45
33 32 31 30 29 29 29 31 32 32 33 32 29 28 26 27 25 26 25 25 25 24 21 20 17 20 22 22 23 23 26 29 33 36 39 40 42 45 51 52 51 51 47 44 52 48 46
28 26 26 25 24 25 26 26 27 27 26 25 25 26 27 27 27 26 27 26 26 25 24 20 19 19 22 23 22 22 23 26 29 33 38 40 43 45 48 54 54 54 50 51 51 47 46
29 27 26 25 27 28 28 28 28 27 28 26 28 28 27 26 25 27 27 27 27 27 26 25 23 19 20 23 23 22 21 22 24 30 35 40 44 45 49 51 55 54 52 52 45 45 47
30 30 30 32 33 31 31 31 30 27 29 28 28 28 27 28 27 26 27 30 31 31 29 29 26 19 21 21 24 23 22 22 22 24 30 37 42 46 51 54 55 57 57 51 53 47 48
32 34 34 35 35 32 31 30 30 30 30 30 29 31 32 29 28 27 29 31 33 33 32 29 30 24 23 22 24 26 25 23 23 23 25 31 39 45 49 53 56 60 60 54 56 51 53
34 35 35 36 35 34 33 33 32 33 34 33 34 36 35 32 31 32 32 34 34 34 36 36 31 29 28 26 26 29 28 26 25 24 25 29 34 38 49 54 56 60 59 57 54 59 56
34 33 34 34 34 34 35 36 36 35 35 35 37 37 35 36 37 37 36 35 36 37 38 37 35 31 28 25 25 29 31 30 28 27 27 30 29 33 41 47 57 58 57 59 57 60 51
35 35 34 33 35 35 36 36 37 36 36 37 38 39 39 40 42 42 42 41 40 39 42 41 39 36 33 30 29 31 31 32 30 30 30 32 29 31 34 43 52 58 56 57 56 55 53
34 34 34 35 36 37 38 39 39 39 40 41 42 43 44 45 45 46 46 44 43 41 42 43 41 38 37 35 34 32 34 35 33 32 31 32 31 31 32 36 44 57 56 53 57 51 63
35 36 37 38 40 43 44 44 44 43 43 44 46 49 50 50 50 47 45 44 44 45 42 42 42 41 40 37 35 35 38 40 38 37 34 33 35 35 33 34 36 50 58 58 54 56 63
39 39 41 44 46 46 47 48 48 50 51 52 53 52 51 48 47 45 44 41 40 40 40 41 41 42 41 38 38 37 40 42 41 39 40 38 37 38 35 36 38 41 54 59 58 51 43
44 46 48 50 49 49 49 49 51 52 52 52 51 49 46 43 41 39 39 40 42 41 40 41 41 42 41 43 38 41 41 45 43 40 38 40 43 40 40 40 40 44 43 52 47 48 51
48 50 52 51 50 50 51 49 48 48 48 46 44 42 42 41 41 41 41 42 43 42 41 41 41 41 43 42 40 42 45 49 47 46 44 41 42 41 43 43 41 42 49 54 54 55 56
49 49 49 48 47 47 47 47 45 42 41 42 42 42 42 42 42 43 44 43 44 44 44 43 43 44 44 44 41 43 49 52 50 48 47 47 48 46 42 41 43 43 47 51 56 60 62
49 50 48 46 45 46 46 45 44 44 43 43 44 45 46 46 45 46 46 45 45 45 47 49 50 50 50 47 46 47 51 53 51 49 49 50 51 49 45 45 46 47 47 50 54 52 53
45 45 44 44 44 45 47 47 46 44 43 44 45 45 47 47 48 49 50 50 50 50 50 51 52 54 51 50 47 48 52 53 52 51 51 50 50 51 48 41 35 44 47 50 52 54 58
43 43 43 45 46 48 49 48 47 46 45 45 45 45 46 47 48 48 48 49 50 48 51 51 54 55 52 49 48 49 53 54 52 52 52 53 52 49 50 47 44 43 45 43 48 51 53
43 43 46 50 52 51 50 49 48 47 45 46 46 45 45 45 45 46 46 47 48 48 46 47 49 51 52 48 47 49 53 58 55 55 54 55 55 55 53 47 45 44 46 47 47 48 47
45 48 50 53 52 50 49 49 49 48 45 46 44 45 45 45 45 45 45 47 46 45 43 44 45 45 46 47 47 47 52 57 59 54 57 54 56 59 58 53 52 51 50 47 50 50 50
48 51 52 52 51 49 49 47 47 46 46 46 45 45 44 42 40 38 39 41 42 42 42 41 42 43 42 42 45 47 48 54 58 54 55 58 54 55 58 56 60 53 47 44 46 50 50
53 52 52 52 50 48 46 46 47 46 46 45 44 43 43 42 41 38 38 38 38 41 41 41 41 42 43 42 43 45 45 49 52 55 50 55 63 61 57 57 56 54 50 46 45 47 53
53 52 51 49 46 45 45 48 48 47 45 44 44 44 45 46 43 41 39 38 38 38 39 40 39 42 41 40 42 43 44 45 49 54 46 49 57 70 67 60 60 52 50 50 46 50 41
52 51 48 45 46 45 49 50 47 45 44 44 45 47 48 48 45 43 41 41 41 40 40 38 39 41 42 42 40 42 44 46 46 46 44 36 51 59 64 71 62 55 49 52 50 38 37
52 50 46 46 45 49 51 49 48 48 48 49 49 50 50 49 48 46 46 45 45 45 44 42 43 40 41 44 44 44 43 46 47 47 44 43 40 50 58 65 67 53 46 47 51 47 44
49 47 47 47 49 51 50 50 50 50 50 51 51 52 53 53 53 54 53 50 50 52 52 51 50 48 46 45 45 48 48 44 46 49 47 46 49 41 50 62 53 67 67 49 51 53 47
Wind_Direction
296 296 295 296 297 293 289 288 291 292 294 298 304 308 308 308 309 307 304 309 303 298 290 292 280 264 259 254 249 248 243 238 236 235 231 227 225 226 229 230 229 229 229 232 233 227 225
294 296 295 294 295 296 290 288 290 286 289 293 300 304 305 297 303 307 303 301 306 299 294 293 287 274 263 260 256 251 246 242 236 234 230 227 225 223 225 228 230 228 227 231 235 230 227
292 293 294 293 293 294 292 288 284 281 286 291 296 298 297 289 298 307 307 300 300 300 300 293 283 279 271 268 264 256 249 244 241 235 231 226 226 223 224 224 227 230 228 229 235 235 229
290 292 293 293 292 291 291 289 288 285 285 288 290 291 288 284 293 295 300 303 296 297 295 299 280 273 271 277 269 260 256 247 242 238 235 228 227 224 224 224 224 229 231 231 230 233 231
292 293 295 296 298 296 294 293 291 289 286 285 285 283 282 280 289 290 292 295 296 292 295 293 291 273 273 271 273 267 257 253 244 239 234 231 227 225 225 224 224 227 231 231 229 228 226
296 298 298 296 298 301 302 298 296 296 292 290 288 285 286 283 284 283 285 289 290 290 293 294 290 283 273 270 272 271 264 255 250 243 236 229 228 226 224 223 226 227 227 230 233 228 230
298 298 295 292 295 300 299 302 300 295 291 289 290 289 291 289 283 284 285 288 289 288 287 288 288 285 272 267 267 273 273 265 259 250 242 234 228 228 226 224 225 226 229 236 238 233 235
296 295 295 296 297 296 297 299 300 297 291 286 289 292 293 287 284 282 289 291 289 288 287 288 288 278 275 268 265 267 272 271 264 256 249 240 233 226 227 225 222 227 231 232 235 232 237
296 295 293 295 297 298 297 294 296 294 294 290 285 288 292 285 281 281 288 292 290 286 283 284 285 279 277 278 265 263 263 268 269 262 253 246 239 230 225 226 225 224 227 227 236 233 235
295 295 294 293 293 293 297 292 294 296 289 286 288 286 285 282 282 283 289 291 289 288 286 284 283 283 280 275 265 259 259 259 263 263 255 249 244 235 228 224 226 226 226 227 231 230 237
294 296 295 293 292 294 292 294 290 294 291 287 287 287 284 282 283 285 286 288 289 286 284 285 284 282 280 276 269 259 257 256 259 259 257 252 246 241 234 230 225 225 226 229 232 236 242
294 294 296 296 294 293 293 291 291 291 289 289 289 288 286 285 286 286 284 287 286 284 286 283 279 278 277 276 270 261 257 254 252 254 257 256 252 246 238 232 227 225 227 230 231 235 236
293 293 294 296 297 296 296 294 292 292 291 290 291 289 288 287 286 285 286 285 282 279 279 277 276 276 274 272 269 257 255 251 248 249 252 252 251 247 243 238 230 225 225 227 228 225 235
293 293 294 295 296 297 295 294 292 291 289 288 291 288 288 288 286 286 284 282 279 279 276 271 271 273 272 269 262 251 246 249 247 248 250 252 249 247 243 241 237 232 227 227 229 229 234
296 295 298 298 297 297 298 296 293 293 293 293 294 292 289 287 286 285 283 282 279 275 274 273 271 268 268 264 262 250 245 244 247 246 245 246 244 244 244 240 232 229 226 231 236 239 240
296 294 296 298 298 297 296 296 295 294 294 293 292 291 290 288 287 285 283 282 280 277 276 273 268 267 267 266 260 252 244 242 243 238 236 237 241 240 240 238 233 230 230 229 221 229 233
298 298 297 298 299 298 297 297 297 295 293 292 290 289 287 285 285 283 280 281 280 277 275 272 269 267 266 264 258 250 245 243 237 238 237 242 243 237 237 238 234 231 227 227 228 235 236
300 299 298 299 298 298 298 298 296 296 293 292 290 288 285 281 278 277 277 277 276 275 272 271 270 268 266 266 260 249 246 244 242 241 241 240 242 240 241 237 233 233 231 231 234 230 228
299 297 297 296 298 302 302 301 299 296 294 292 287 285 282 281 276 273 273 272 271 271 271 272 272 270 270 266 259 248 243 243 242 239 237 239 241 242 238 238 233 233 233 232 233 235 233
292 291 294 297 302 304 303 300 298 297 296 293 289 285 282 278 274 273 273 272 271 270 269 270 271 272 270 265 258 248 244 243 242 239 238 238 237 240 240 243 246 238 233 231 232 235 235
287 290 295 300 304 305 303 301 301 301 299 295 290 286 283 281 278 276 274 274 273 271 272 273 273 271 269 268 261 247 241 240 241 240 235 235 237 239 235 233 233 235 231 233 233 234 235
288 292 296 301 304 305 304 304 303 302 297 294 290 287 286 283 282 282 280 279 277 276 276 275 273 273 274 270 261 248 241 237 238 237 235 233 233 236 235 233 232 236 233 225 230 232 234
289 294 297 301 303 302 302 301 301 300 295 292 290 288 286 285 286 286 284 283 282 279 275 274 272 270 268 264 261 253 242 239 237 234 229 233 233 236 236 236 238 236 229 232 232 232 236
293 297 301 300 301 300 300 298 297 296 297 294 292 289 287 287 288 287 283 282 281 278 276 274 272 269 263 263 262 256 246 241 240 239 232 229 230 237 236 236 238 231 233 231 235 236 236
298 300 300 300 299 297 297 299 299 299 296 294 292 290 289 290 289 288 285 281 278 279 279 276 275 272 267 265 259 256 254 247 243 243 236 231 227 228 232 234 235 234 231 229 232 232 232
300 300 298 297 296 296 297 300 299 297 294 292 290 290 291 291 291 288 285 283 280 276 273 276 276 272 270 264 258 255 251 250 249 244 241 236 231 228 227 231 233 228 233 232 231 233 231
298 298 297 295 295 294 298 299 297 295 293 292 291 290 290 289 289 287 286 284 281 278 276 274 271 270 270 267 261 255 251 251 247 246 246 241 234 234 232 232 230 225 228 233 233 228 241
299 297 294 294 293 296 297 296 294 294 293 292 291 290 289 288 288 288 285 284 284 282 278 274 270 265 263 263 263 260 253 248 247 243 242 236 235 234 231 232 230 224 225 234 230 228 229
297 294 292 292 294 295 295 295 294 293 292 291 291 290 289 289 288 286 286 285 281 277 276 276 271 269 267 263 259 257 256 252 247 242 238 231 221 212 225 229 224 228 224 220 224 226 226